Location: Augustenthal
(51.7167°N, 10.2833°E)
Time: 04:36:00
(UTC+00:00)

USA 245 - Pass Details

Date: 18 May 2021
Orbit: 265 x 982 km, 97.9° (Epoch: 13 June)

Event Time Altitude Azimuth Distance (km) Brightness Sun altitude
Exits shadow 20:19:38 12° 167° (SSE) 1,021 4.2 -8.9°
Maximum altitude 20:21:44 83° 255° (WSW) 309 2.1 -9.1°
Drops below altitude 10° 20:24:22 10° 344° (NNW) 1,276 6.4 -9.4°
Sets 20:26:27 0° 346° (NNW) 2,218 7.7 -9.6°
